Cross City, FL

1:08 PM EST on November 17, 2019 (GMT -0500)
Cross City

Weather History for KCTY - October, 2019

Change the Weather History Date:

Saturday, October 12, 2019

  Actual Average Record
Temperature  
Mean Temperature 71 °F 72 °F  
Max Temperature 85 °F 83 °F 92 °F (2014)
Min Temperature 56 °F 60 °F 46 °F (2000)
Degree Days  
Heating Degree Days 0    
Month to date heating degree days 0  
Since 1 July heating degree days 0  
Cooling Degree Days 6    
Month to date cooling degree days 149  
Year to date cooling degree days 2906  
Growing Degree Days 20 (Base 50)    
Moisture  
Dew Point 60 °F    
Average Humidity 74    
Maximum Humidity 97    
Minimum Humidity 32    
Precipitation  
Precipitation 0.00 in 0.09 in 0.08 in (2011)
Month to date precipitation 0.31 1.65  
Year to date precipitation 47.78 41.48  
Sea Level Pressure  
Sea Level Pressure 30.03 in    
Wind  
Wind Speed 2 mph (NNE)    
Max Wind Speed 7 mph    
Max Gust Speed -    
Visibility 10 miles    
Events      
T = Trace of Precipitation, MM = Missing Value Source: NWS Daily Summary

Daily Weather History Graph

Daily Weather History Graph

Search for Another Location

Airport or City:

Astronomy

Oct. 12, 2019 Rise Set
Actual Time 7:31 AM EDT 7:05 PM EDT
Civil Twilight 7:08 AM EDT 7:29 PM EDT
Nautical Twilight 6:40 AM EDT 7:56 PM EDT
Astronomical Twilight 6:12 AM EDT 8:24 PM EDT
Moon 6:51 PM EDT (10/12) 6:19 AM EDT (10/12)
Length of Visible Light 12h 21m
Length of Day
11h 33m
Waxing Gibbous, 99% of the Moon is Illuminated
Oct 12
Waxing Gibbous
Oct 13
Full
Oct 21
Last Quarter
Oct 27
New
Nov 4
First Quarter

Hourly Weather History & Observations

Time (EDT) Temp. Heat Index Dew Point Humidity Pressure Visibility Wind Dir Wind Speed Gust Speed Precip Events Conditions
12:15 AM 64.0 °F - 61.2 °F 90% 30.05 in 10.0 mi Calm Calm - N/A   Clear
12:35 AM 62.2 °F - 60.3 °F 93% 30.05 in 10.0 mi Calm Calm - N/A   Clear
12:55 AM 62.4 °F - 60.4 °F 93% 30.05 in 10.0 mi Calm Calm - N/A   Unknown
1:15 AM 62.4 °F - 60.6 °F 94% 30.05 in 10.0 mi Calm Calm - N/A   Unknown
1:35 AM 61.5 °F - 59.7 °F 94% 30.05 in 10.0 mi Calm Calm - N/A   Clear
1:55 AM 60.8 °F - 59.0 °F 94% 30.05 in 10.0 mi Calm Calm - N/A   Clear
2:15 AM 60.1 °F - 58.5 °F 94% 30.05 in 10.0 mi Calm Calm - N/A   Clear
2:35 AM 60.1 °F - 58.6 °F 95% 30.04 in 10.0 mi NNE 3.5 mph - N/A   Clear
2:55 AM 60.4 °F - 59.2 °F 96% 30.03 in 10.0 mi Calm Calm - N/A   Clear
3:15 AM 59.9 °F - 58.6 °F 96% 30.02 in 10.0 mi Calm Calm - N/A   Clear
3:35 AM 59.4 °F - 57.9 °F 95% 30.01 in 10.0 mi Calm Calm - N/A   Clear
4:15 AM 57.7 °F - 56.7 °F 96% 30.00 in 7.0 mi Calm Calm - N/A   Clear
4:35 AM 58.6 °F - 57.6 °F 96% 30.00 in 10.0 mi Calm Calm - N/A   Clear
4:55 AM 58.6 °F - 57.9 °F 97% 30.00 in 10.0 mi Calm Calm - N/A   Clear
5:35 AM 58.1 °F - 56.8 °F 96% 30.01 in 10.0 mi Calm Calm - N/A   Clear
5:55 AM 57.9 °F - 57.0 °F 97% 30.01 in 10.0 mi Calm Calm - N/A   Clear
6:15 AM 57.6 °F - 56.8 °F 97% 30.01 in 10.0 mi Calm Calm - N/A   Clear
6:35 AM 56.5 °F - 55.4 °F 96% 30.01 in 10.0 mi Calm Calm - N/A   Clear
6:55 AM 56.8 °F - 55.8 °F 96% 30.02 in 10.0 mi Calm Calm - N/A   Clear
7:15 AM 55.8 °F - 54.7 °F 96% 30.03 in 10.0 mi Calm Calm - N/A   Clear
7:35 AM 56.1 °F - 55.0 °F 96% 30.03 in 10.0 mi Calm Calm - N/A   Clear
7:55 AM 56.8 °F - 55.9 °F 97% 30.03 in 10.0 mi Calm Calm - N/A   Clear
8:15 AM 58.1 °F - 57.4 °F 97% 30.04 in 3.5 mi Calm Calm - N/A   Mostly Cloudy
8:35 AM 60.6 °F - 59.9 °F 97% 30.04 in 10.0 mi Calm Calm - N/A   Scattered Clouds
8:55 AM 64.0 °F - 62.6 °F 95% 30.04 in 10.0 mi NE 3.5 mph - N/A   Clear
9:15 AM 66.7 °F - 64.0 °F 91% 30.05 in 10.0 mi Calm Calm - N/A   Clear
9:35 AM 69.3 °F - 64.9 °F 86% 30.05 in 10.0 mi Calm Calm - N/A   Clear
9:55 AM 73.0 °F - 65.7 °F 78% 30.05 in 10.0 mi East 3.5 mph - N/A   Clear
10:15 AM 75.2 °F - 65.7 °F 72% 30.05 in 10.0 mi East 3.5 mph - N/A   Clear
10:35 AM 77.5 °F - 65.1 °F 65% 30.05 in 10.0 mi East 4.6 mph - N/A   Unknown
10:55 AM 78.4 °F - 63.5 °F 60% 30.06 in 10.0 mi Calm Calm - N/A   Unknown
11:15 AM 80.6 °F 81.6 °F 61.5 °F 52% 30.06 in 10.0 mi Calm Calm - N/A   Unknown
11:35 AM 80.1 °F 81.1 °F 61.7 °F 53% 30.06 in 10.0 mi Calm Calm - N/A   Unknown
11:55 AM 82.0 °F 82.5 °F 60.8 °F 48% 30.06 in 10.0 mi NE 4.6 mph - N/A   Unknown
12:15 PM 81.7 °F 82.0 °F 59.9 °F 47% 30.06 in 10.0 mi Calm Calm - N/A   Unknown
12:35 PM 82.4 °F 82.7 °F 60.1 °F 47% 30.05 in 10.0 mi WNW 6.9 mph - N/A   Unknown
12:55 PM 83.5 °F 83.1 °F 58.1 °F 42% 30.05 in 10.0 mi NE 5.8 mph - N/A   Unknown
1:15 PM 82.4 °F 82.5 °F 59.0 °F 45% 30.05 in 10.0 mi NNE 8.1 mph - N/A   Unknown
1:35 PM 84.2 °F 83.7 °F 58.5 °F 41% 30.04 in - NE 3.5 mph - N/A   Unknown
1:55 PM 83.7 °F 83.4 °F 59.0 °F 43% 30.03 in 10.0 mi NNE 6.9 mph - N/A   Unknown
2:15 PM 84.2 °F 83.5 °F 57.2 °F 40% 30.03 in 10.0 mi NE 6.9 mph - N/A   Unknown
2:55 PM 85.1 °F 84.6 °F 58.6 °F 41% 30.01 in 10.0 mi NNE 5.8 mph - N/A   Unknown
3:15 PM 84.6 °F 84.2 °F 58.8 °F 42% 30.01 in 10.0 mi North 3.5 mph - N/A   Unknown
3:35 PM 84.7 °F 84.0 °F 57.7 °F 40% 30.00 in 10.0 mi ENE 4.6 mph - N/A   Unknown
3:55 PM 85.3 °F 84.6 °F 58.3 °F 40% 30.00 in 10.0 mi NNW 4.6 mph - N/A   Unknown
4:35 PM 84.9 °F 84.2 °F 57.9 °F 40% 29.99 in 10.0 mi NE 4.6 mph - N/A   Clear
4:55 PM 85.3 °F 84.8 °F 58.8 °F 41% 29.99 in 10.0 mi Calm Calm - N/A   Clear
5:15 PM 85.5 °F 84.6 °F 57.7 °F 39% 29.99 in 10.0 mi North 3.5 mph - N/A   Unknown
5:35 PM 84.7 °F 84.2 °F 58.5 °F 41% 29.99 in 10.0 mi NNW 5.8 mph - N/A   Unknown
5:55 PM 84.4 °F 84.0 °F 58.6 °F 42% 29.99 in 10.0 mi North 5.8 mph - N/A   Unknown
6:15 PM 83.3 °F 83.4 °F 59.9 °F 45% 29.99 in 10.0 mi NNW 4.6 mph - N/A   Unknown
6:35 PM 81.5 °F 82.2 °F 61.3 °F 50% 29.99 in 10.0 mi NW 3.5 mph - N/A   Unknown
6:55 PM 77.5 °F - 64.6 °F 64% 30.00 in 10.0 mi WNW 3.5 mph - N/A   Unknown
7:15 PM 75.2 °F - 64.6 °F 69% 30.00 in 10.0 mi Calm Calm - N/A   Unknown
7:35 PM 72.7 °F - 64.2 °F 75% 30.01 in 10.0 mi WSW 4.6 mph - N/A   Unknown
7:55 PM 73.4 °F - 63.3 °F 71% 30.01 in 10.0 mi WSW 3.5 mph - N/A   Unknown
8:15 PM 71.2 °F - 63.7 °F 77% 30.02 in 10.0 mi Calm Calm - N/A   Unknown
8:35 PM 70.3 °F - 63.7 °F 79% 30.02 in 10.0 mi Calm Calm - N/A   Unknown
8:55 PM 68.5 °F - 63.7 °F 84% 30.03 in 10.0 mi Calm Calm - N/A   Unknown
9:15 PM 68.4 °F - 63.7 °F 85% 30.03 in 10.0 mi Calm Calm - N/A   Unknown
9:35 PM 68.4 °F - 63.9 °F 85% 30.03 in 10.0 mi Calm Calm - N/A   Unknown
9:55 PM 68.0 °F - 63.9 °F 87% 30.03 in 10.0 mi Calm Calm - N/A   Clear
10:15 PM 68.7 °F - 65.1 °F 88% 30.04 in 10.0 mi NNE 3.5 mph - N/A   Clear
10:35 PM 68.9 °F - 64.4 °F 86% 30.04 in 10.0 mi Calm Calm - N/A   Clear
10:55 PM 67.1 °F - 64.4 °F 91% 30.04 in 10.0 mi Calm Calm - N/A   Clear
11:15 PM 66.9 °F - 64.0 °F 90% 30.04 in 10.0 mi East 3.5 mph - N/A   Unknown
11:55 PM 66.2 °F - 63.7 °F 92% 30.04 in 10.0 mi Calm Calm - N/A   Clear